Home   Weather   Grand Rapids   Past weeks

Flag for USA Past Weather in Grand Rapids, Michigan, USA — Yesterday and Last 2 Weeks

Now
59 °F

Overcast.


Feels Like: 56 °F
Forecast: 51 / 64 °F
Wind: 14 mph from West

Location: Kent County International Airport

Current Time: Sep 27, 2016 at 8:09:00 PM

Latest Report: Sep 27, 2016 at 6:53 PM


Visibility: 10 mi

Pressure: 29.76 "Hg

Humidity: 58%

Dew Point: 44 °F

Location of Grand RapidsLocation

Past Weather in Grand Rapids — Graph

°F

Grand Rapids Temperature Yesterday

Maximum temperature yesterday: 67 °F (at 3:53 PM)
Minimum temperature yesterday: 53 °F (at 10:53 PM)
Average temperature yesterday: 62 °F

High & Low Weather Summary for the Past Weeks

 TemperatureHumidityPressure
High83 °F (Sep 19, 3:53 PM)97% (Sep 21, 10:53 PM)30.32 "Hg (Sep 21, 10:53 PM)
Low49 °F (Sep 27, 6:53 AM)32% (Sep 19, 4:53 PM)29.72 "Hg (Sep 27, 12:53 PM)
Average66 °F72%30.06 "Hg
* Reported Sep 12 6:53 PM — Sep 27 6:53 PM, Grand Rapids, Weather by CustomWeather, © 2016

Note: Actual official high and low records may vary slightly from our data, if they occured in-between our weather recording intervals... More about our weather records

Advertising

Grand Rapids Weather History for the Previous 24 Hours

Scroll right to see more
 ConditionsComfort  
Time TempWeatherWind HumidityBarometerVisibility
6:53 PM
Tue, Sep 27
59 °FOvercast.14 mph58%29.76 "Hg10 mi
5:53 PM59 °FMostly cloudy.12 mph58%29.75 "Hg10 mi
4:53 PM60 °FMore clouds than sun.16 mph53%29.73 "Hg10 mi
3:53 PM60 °FOvercast.14 mph53%29.73 "Hg10 mi
2:53 PM60 °FOvercast.18 mph56%29.73 "Hg10 mi
1:53 PM59 °FPartly sunny.20 mph54%29.73 "Hg10 mi
12:53 PM61 °FBroken clouds.26 mph52%29.72 "Hg10 mi
11:53 AM61 °FBroken clouds.24 mph48%29.73 "Hg10 mi
10:53 AM61 °FPartly sunny.17 mph52%29.74 "Hg10 mi
9:53 AM60 °FPartly sunny.14 mph62%29.72 "Hg10 mi
8:53 AM54 °FScattered clouds.12 mph72%29.73 "Hg10 mi
7:53 AM50 °FScattered clouds.12 mph77%29.74 "Hg10 mi
6:53 AM49 °FPassing clouds.12 mph77%29.75 "Hg10 mi
5:53 AM52 °FClear.9 mph66%29.75 "Hg10 mi
4:53 AM53 °FClear.14 mph64%29.76 "Hg10 mi
3:53 AM51 °FPassing clouds.10 mph71%29.78 "Hg10 mi
2:53 AM50 °FClear.9 mph74%29.81 "Hg10 mi
1:53 AM50 °FClear.6 mph74%29.82 "Hg10 mi
12:53 AM50 °FClear.5 mph74%29.84 "Hg10 mi
11:53 PM
Mon, Sep 26
55 °FPassing clouds.6 mph62%29.85 "Hg10 mi
10:53 PM53 °FPartly cloudy.9 mph74%29.86 "Hg10 mi
9:53 PM57 °FPartly cloudy.No wind55%29.88 "Hg10 mi
8:53 PM58 °FPartly cloudy.10 mph58%29.89 "Hg10 mi
Weather by CustomWeather, © 2016

See weather overviewHow to use our weather pages